Regional Weather Roundup
Issued by NWS San Angelo, TX

Home | Current Version | Previous Version | Text Only | Print | Product List | Glossary On
Versions: 1 2 3 4 5 6 7 8 9 10 11 12 13 14 15 16 17 18 19 20 21 22 23 24 25 26 27 28 29 30 31 32 33 34 35 36 37 38 39 40 41 42 43 44 45 46 47 48 49 50
000
ASUS44 KSJT 220910
RWRSJT
WEST CENTRAL TEXAS REGIONAL WEATHER ROUNDUP
NATIONAL WEATHER SERVICE SAN ANGELO TX
300 AM CST WED FEB 22 2017

NOTE: "FAIR" INDICATES FEW OR NO CLOUDS BELOW 12,000 FEET WITH NO
SIGNIFICANT WEATHER AND/OR OBSTRUCTIONS TO VISIBILITY.

TXZ049-054-064>066-071>073-076>078-098-099-113-114-127-128-139-140-
154-155-168>170-221000
...LOCATIONS ACROSS WEST CENTRAL TEXAS...

CITY           SKY/WX    TMP DP  RH WIND       PRES   REMARKS
SAN ANGELO     CLEAR     46  38  73 SW7       29.98F
ABILENE        PTCLDY    48  36  63 S7        29.95F
DYESS AFB      PTCLDY    45  38  77 SW6       29.94F
JUNCTION       PTCLDY    43  41  93 W3        29.99F
SWEETWATER     CLEAR     55  35  47 S10       29.99S
BROWNWOOD      PTCLDY    41  37  87 CALM      29.97S
COLEMAN        MOSUNNY   47  37  69 W7        29.97S
SONORA         PTCLDY    41  37  87 CALM      30.05F
OZONA          NOT AVBL
BRADY          NOT AVBL
$$

TEXAS PANHANDLE/OKLAHOMA PANHANDLE

CITY           SKY/WX    TMP DP  RH WIND       PRES   REMARKS
AMARILLO       CLOUDY    43  29  57 W9        29.95F WCI  38
BORGER         CLOUDY    53  29  39 W9        29.91F
CANADIAN       CLOUDY    36  30  79 N3        29.89F
DALHART        CLOUDY    45  18  34 W12       29.96F WCI  39
DUMAS          CLOUDY    47  18  31 W15       29.93F
GUYMON         NOT AVBL
HEREFORD       CLOUDY    40  32  72 W10G17    30.00F WCI  34
PAMPA          NOT AVBL
PERRYTON       CLEAR     45  30  55 SW9       29.88S
$$

SOUTHERN PANHANDLE/SOUTH PLAINS/ROLLING PLAINS

CITY           SKY/WX    TMP DP  RH WIND       PRES   REMARKS
LUBBOCK        CLOUDY    45  30  55 W14       29.98F WCI  38
SNYDER         CLEAR     49  37  63 S10       29.97F
CHILDRESS      CLOUDY    48  34  58 SW10      29.92F
SEMINOLE       SUNNY     51  33  50 NW9       30.04F
$$

PERMIAN BASIN

CITY           SKY/WX    TMP DP  RH WIND       PRES   REMARKS
MIDLAND        CLEAR     53  34  48 W5        30.01F
ODESSA         CLEAR     53  32  44 NW10      30.03S
WINK             N/A     48  31  51 MISG      30.02F
$$

FAR WEST/SOUTHWEST MOUNTAINS/TRANS PECOS

CITY           SKY/WX    TMP DP  RH WIND       PRES   REMARKS
ALPINE         SUNNY     62  28  27 W13       30.18F
DRYDEN           N/A     61  33  35 W10       30.00F
EL PASO        CLEAR     61  30  31 W9        30.13F
FORT STOCKTON  CLEAR     57  31  37 SW10      30.05F
GUADALUPE PASS CLOUDY    48  32  53 SW21      30.17F
MARFA          CLOUDY    40  26  57 SE5       30.19F WCI  37
PECOS          SUNNY     54  31  41 W5        30.04F
$$

DALLAS/FORT WORTH METROPLEX

CITY           SKY/WX    TMP DP  RH WIND       PRES   REMARKS
DFW AIRPORT    CLEAR     51  41  68 CALM      29.90F
FTW MEACHAM    CLEAR     51  41  68 W3        29.91F
DAL-EXECUTIVE  CLEAR     57  40  52 NW3       29.91F
GRAND PRAIRIE  CLEAR     48  39  71 CALM      29.93F
ADDISON        CLEAR     52  42  69 CALM      29.94F
MESQUITE       SUNNY     52  43  73 CALM      29.93S
LANCASTER      SUNNY     45  41  86 CALM      29.93F
$$

NORTH CENTRAL TEXAS

CITY           SKY/WX    TMP DP  RH WIND       PRES   REMARKS
SHRMAN/DENISON SUNNY     47  40  77 CALM      29.93F
GAINESVILLE    CLEAR     44  38  82 CALM      29.93F
BRIDGEPORT     SUNNY     42  40  90 CALM      29.94F
DENTON         CLEAR     46  42  86 CALM      29.91F
WAXAHACHIE     SUNNY     52  40  65 N5        29.94F
GRANBURY       SUNNY     42  38  84 SW6       29.94F WCI  39
$$

WESTERN NORTH TEXAS

CITY           SKY/WX    TMP DP  RH WIND       PRES   REMARKS
WICHITA FALLS  CLEAR     47  40  76 SW5       29.91F
VERNON         SUNNY     49  38  64 SW7       29.92F
BRECKENRIDGE   SUNNY     46  39  75 SW7       29.94R
COMANCHE       PTCLDY    59  36  41 SW5       29.95F
$$

CENTRAL AND SOUTH CENTRAL TEXAS

CITY           SKY/WX    TMP DP  RH WIND       PRES   REMARKS
AUSTIN/BERGSTM CLEAR     45  43  93 W3        29.95S
WACO           CLEAR     44  40  85 W5        29.93F
HILLSBORO      SUNNY     50  42  75 CALM      29.93F
TEMPLE         CLEAR     46  42  86 NW5       29.94F
KILLEEN-GRAY   CLEAR     54  37  53 CALM      29.93F
FORT HOOD      CLEAR     56  36  48 CALM      29.91F
GEORGETOWN     CLEAR     46  37  71 W5        29.94F
LAGO VISTA     FAIR      59  38  45 W5        29.96F
SAN MARCOS     CLEAR     46  43  87 NW12      29.96S
NEW BRAUNFELS  CLEAR     49  40  71 NW8       29.95S
RANDOLPH AFB   CLEAR     49  42  76 NW10      29.95F
SAN ANTONIO    CLEAR     53  40  61 NW7       29.96F
STINSON        CLEAR     55  43  63 W6        29.94F
PLEASANTON     NOT AVBL
LA GRANGE      CLEAR     48  46  92 CALM      29.92S
GIDDINGS       SUNNY     49  42  79 NW5       29.94F
$$

EAST TEXAS

CITY           SKY/WX    TMP DP  RH WIND       PRES   REMARKS
PARIS          CLEAR     52  45  76 N7        29.90F
CLARKSVILLE    NOT AVBL
TYLER          CLEAR     55  49  80 NW5       29.90S
LONGVIEW       PTCLDY    56  52  86 W6        29.88S
PALESTINE      SUNNY     48  47  95 CALM      29.92F
NACOGDOCHES    CLEAR     48  46  93 CALM      29.88F
$$

TEXAS HILL COUNTRY AND EDWARDS PLATEAU

CITY           SKY/WX    TMP DP  RH WIND       PRES   REMARKS
LLANO          SUNNY     43  39  87 CALM      30.00F
HORSESHOE BAY  FAIR      43  41  93 CALM      29.96F
KERRVILLE      CLEAR     44  41  89 CALM      29.99F
FREDERICKSBRG  PTCLDY    44  38  79 W3        29.99F
ROCKSPRINGS    SUNNY     64  32  29 W3        30.03F
HONDO          CLEAR     49  43  80 N8        29.97F
UVALDE         SUNNY     50  42  74 CALM      29.98F
DEL RIO        CLEAR     52  41  66 CALM      29.97F
$$

SOUTHEAST TEXAS

CITY           SKY/WX    TMP DP  RH WIND       PRES   REMARKS
COLLEGE STN    CLEAR     55  47  74 CALM      29.92S
CALDWELL       NOT AVBL
CROCKETT         N/A    N/A N/A N/A MISG        N/A
BRENHAM        CLEAR     50  48  92 CALM      29.93S
HUNTSVILLE     CLEAR     55  47  74 CALM      29.91S
CONROE         CLEAR     47  46  97 CALM      29.90F
HOUSTON BUSH   CLEAR     57  48  72 NW7       29.90S
HOUSTON HOBBY  CLEAR     57  49  74 W3        29.89F
PERLAND        CLEAR     55  49  80 CALM      29.91S
WHARTON        SUNNY     51  48  90 W3        29.93S
$$

THE UPPER TEXAS COAST

CITY           SKY/WX    TMP DP  RH WIND       PRES   REMARKS
ORANGE         SUNNY     59  53  81 NW3       29.88F
PORT ARTHUR    CLEAR     55  51  86 NW5       29.87F
GALVESTON      CLEAR     64  53  67 NW8       29.89F
ANGLETON       CLEAR     52  49  89 CALM      29.90F
BAY CITY       SUNNY     53  51  94 W3        29.91S
$$

TEXAS COASTAL BEND, RIO GRANDE PLAINS DEEP SOUTH TEXAS

CITY           SKY/WX    TMP DP  RH WIND       PRES   REMARKS
VICTORIA       CLEAR     53  46  77 W7        29.94S
BEEVILLE       FAIR      62  47  57 W3        29.94F
ROCKPORT       PTCLDY    53  50  89 CALM      29.93S
PORT ARANSAS   MOSUNNY   62  58  85 CALM      29.93S
PORT LAVACA    SUNNY     53  50  88 CALM      29.94S
CORPUS CHRISTI CLEAR     59  54  83 SW5       29.93F
KINGSVILLE NAS CLEAR     55  46  71 SW3       29.93F
COTULLA        CLEAR     58  38  47 CALM      29.94F
LAREDO         CLEAR     55  45  68 NW5       29.96F
BROWNSVILLE    PTCLDY    58  57  97 SW3       29.93F FOG
PORT ISABEL    FOG       58  58 100 S3        29.93F VSB 3/4
HEBBRONVILLE   SUNNY     58  36  44 CALM      29.96S
MCALLEN        CLEAR     55  44  66 NW3       29.95F
WESLACO        CLEAR     59  51  75 SW3       29.93F
FALFURRIAS     SUNNY    N/A N/A N/A NW3       29.93F
EDINBURG       SUNNY     56  46  68 E3        29.96R
$$




USA.gov is the U.S. government's official web portal to all federal, state and local government web resources and services.